TimePDT,TemperatureF,Dew PointF,Humidity,Sea Level PressureIn,VisibilityMPH,Wind Direction,Wind SpeedMPH,Gust SpeedMPH,PrecipitationIn,Events,Conditions,WindDirDegrees,DateUTC
12:53 AM,70.0,37.9,31,29.84,10.0,WNW,6.9,-,N/A,,Clear,300,2013-08-07 07:53:00
1:53 AM,68.0,39.9,36,29.85,10.0,NW,8.1,-,N/A,,Clear,310,2013-08-07 08:53:00
2:53 AM,66.9,39.0,36,29.86,10.0,NW,6.9,-,N/A,,Clear,310,2013-08-07 09:53:00
3:53 AM,61.0,43.0,52,29.87,10.0,North,5.8,-,N/A,,Clear,350,2013-08-07 10:53:00
4:53 AM,63.0,42.1,46,29.87,10.0,NNW,6.9,-,N/A,,Clear,330,2013-08-07 11:53:00
5:53 AM,60.1,43.0,53,29.89,10.0,NNW,8.1,-,N/A,,Clear,330,2013-08-07 12:53:00
6:53 AM,64.0,45.0,50,29.89,10.0,NNW,9.2,-,N/A,,Clear,340,2013-08-07 13:53:00
7:53 AM,72.0,45.0,38,29.90,10.0,NNW,6.9,-,N/A,,Clear,340,2013-08-07 14:53:00
8:53 AM,77.0,45.0,32,29.90,10.0,North,12.7,-,N/A,,Clear,350,2013-08-07 15:53:00
9:53 AM,81.0,46.0,29,29.90,10.0,North,10.4,-,N/A,,Clear,360,2013-08-07 16:53:00
10:53 AM,84.9,46.9,27,29.89,10.0,North,12.7,20.7,N/A,,Clear,350,2013-08-07 17:53:00
11:53 AM,89.1,46.9,23,29.87,10.0,North,13.8,21.9,N/A,,Clear,10,2013-08-07 18:53:00
12:53 PM,93.0,42.1,17,29.86,10.0,North,8.1,17.3,N/A,,Clear,10,2013-08-07 19:53:00
1:53 PM,93.0,37.0,14,29.84,10.0,NNW,5.8,-,N/A,,Clear,330,2013-08-07 20:53:00
2:53 PM,91.9,35.1,13,29.83,10.0,Calm,Calm,-,N/A,,Clear,0,2013-08-07 21:53:00
3:53 PM,95.0,39.0,14,29.81,10.0,North,4.6,-,N/A,,Clear,350,2013-08-07 22:53:00
4:53 PM,95.0,37.9,14,29.80,10.0,SSW,6.9,-,N/A,,Clear,210,2013-08-07 23:53:00
5:53 PM,93.9,39.9,15,29.79,10.0,SW,8.1,-,N/A,,Clear,230,2013-08-08 00:53:00
6:53 PM,93.0,41.0,16,29.79,10.0,WSW,6.9,-,N/A,,Clear,240,2013-08-08 01:53:00
7:53 PM,86.0,46.9,26,29.79,10.0,Calm,Calm,-,N/A,,Clear,0,2013-08-08 02:53:00
8:53 PM,79.0,48.0,34,29.80,10.0,WNW,11.5,-,N/A,,Clear,300,2013-08-08 03:53:00
9:53 PM,75.9,48.0,37,29.81,10.0,WNW,8.1,-,N/A,,Clear,290,2013-08-08 04:53:00
10:53 PM,73.9,48.0,40,29.83,10.0,NNW,6.9,-,N/A,,Clear,340,2013-08-08 05:53:00
11:53 PM,69.1,48.0,47,29.84,10.0,WNW,8.1,-,N/A,,Clear,300,2013-08-08 06:53:00